,,,PA_Meas_PMT16A,,PR_Meas_QMR101_102,,RH_Meas_QMH101,,SR_Meas_QMS101,,TA_Meas_QMH101,,GenWind,,GenWind,
date,time,status,PA,status,PR,status,RH,status,SR,status,TA,status,DirAvg,status,SpdAvg,
2012-04-17, 00:00:04,VALID,1008.27,VALID,0,VALID,104,VALID,0,VALID,24.1227,VALID,305,VALID,0,
2012-04-17, 00:01:04,VALID,1008.25,VALID,0,VALID,104,VALID,0,VALID,24.1227,VALID,305,VALID,0,
2012-04-17, 00:02:04,VALID,1008.21,VALID,0,VALID,104,VALID,0,VALID,24.1227,VALID,305,VALID,0,
2012-04-17, 00:03:04,VALID,1008.19,VALID,0,VALID,104,VALID,0,VALID,24.1227,VALID,305,VALID,0,
2012-04-17, 00:04:04,VALID,1008.18,VALID,0,VALID,104,VALID,0,VALID,24.1032,VALID,305,VALID,0,
2012-04-17, 00:05:04,VALID,1008.15,VALID,0,VALID,104,VALID,0,VALID,24.1032,VALID,305,VALID,0,
2012-04-17, 00:06:04,VALID,1008.17,VALID,0,VALID,104,VALID,0,VALID,24.0837,VALID,305,VALID,0,
2012-04-17, 00:07:04,VALID,1008.16,VALID,0,VALID,104,VALID,0,VALID,24.0643,VALID,305,VALID,0,
2012-04-17, 00:08:04,VALID,1008.17,VALID,0,VALID,104,VALID,0,VALID,24.0429,VALID,305,VALID,0,
2012-04-17, 00:09:04,VALID,1008.18,VALID,0,VALID,104,VALID,0,VALID,24.0253,VALID,305,VALID,0,
2012-04-17, 00:10:04,VALID,1008.16,VALID,0,VALID,104,VALID,0,VALID,24.0253,VALID,305,VALID,0,
2012-04-17, 00:11:04,VALID,1008.16,VALID,0,VALID,104,VALID,0,VALID,24.0253,VALID,305,VALID,0,
2012-04-17, 00:12:04,VALID,1008.14,VALID,0,VALID,104,VALID,0,VALID,24.004,VALID,305,VALID,0,
2012-04-17, 00:13:04,VALID,1008.12,VALID,0,VALID,104,VALID,0,VALID,24.0058,VALID,305,VALID,0,
2012-04-17, 00:14:04,VALID,1008.12,VALID,0,VALID,104,VALID,0,VALID,24.0058,VALID,305,VALID,0,
2012-04-17, 00:15:04,VALID,1008.09,VALID,0,VALID,104,VALID,0,VALID,24.0058,VALID,305,VALID,0,
2012-04-17, 00:16:04,VALID,1008.1,VALID,0,VALID,104,VALID,0,VALID,24.0058,VALID,305,VALID,0,
2012-04-17, 00:17:04,VALID,1008.08,VALID,0,VALID,104,VALID,0,VALID,24.0058,VALID,305,VALID,0,
2012-04-17, 00:18:04,VALID,1008.06,VALID,0,VALID,104,VALID,0,VALID,23.9863,VALID,305,VALID,0,
2012-04-17, 00:19:04,VALID,1008.06,VALID,0,VALID,104,VALID,0,VALID,23.9863,VALID,305,VALID,0,
2012-04-17, 00:20:04,VALID,1008.08,VALID,0,VALID,104,VALID,0,VALID,23.9863,VALID,305,VALID,0,
2012-04-17, 00:21:04,VALID,1008.08,VALID,0,VALID,104,VALID,0,VALID,23.9881,VALID,305,VALID,0,
2012-04-17, 00:22:04,VALID,1008.1,VALID,0,VALID,104,VALID,0,VALID,23.9668,VALID,305,VALID,0,
2012-04-17, 00:23:04,VALID,1008.11,VALID,0,VALID,104,VALID,0,VALID,23.9668,VALID,305,VALID,0,
2012-04-17, 00:24:04,VALID,1008.1,VALID,0,VALID,104,VALID,0,VALID,23.9863,VALID,305,VALID,0,
2012-04-17, 00:25:04,VALID,1008.11,VALID,0,VALID,104,VALID,0,VALID,24.0253,VALID,305,VALID,0,
2012-04-17, 00:26:04,VALID,1008.1,VALID,0,VALID,104,VALID,0,VALID,24.0058,VALID,305,VALID,0,
2012-04-17, 00:27:04,VALID,1008.1,VALID,0,VALID,104,VALID,0,VALID,24.0058,VALID,305,VALID,0,
2012-04-17, 00:28:04,VALID,1008.15,VALID,0,VALID,104,VALID,0,VALID,24.0058,VALID,305,VALID,0,
2012-04-17, 00:29:04,VALID,1008.09,VALID,0,VALID,104,VALID,0,VALID,23.9845,VALID,305,VALID,0,
2012-04-17, 00:30:04,VALID,1008.11,VALID,0,VALID,104,VALID,0,VALID,23.9863,VALID,305,VALID,0,
2012-04-17, 00:31:04,VALID,1008.1,VALID,0,VALID,104,VALID,0,VALID,23.9863,VALID,305,VALID,0,
2012-04-17, 00:32:04,VALID,1008.09,VALID,0,VALID,104,VALID,0,VALID,24.0076,VALID,305,VALID,0,
2012-04-17, 00:33:04,VALID,1008.11,VALID,0,VALID,104,VALID,0,VALID,24.0253,VALID,305,VALID,0,
2012-04-17, 00:34:04,VALID,1008.11,VALID,0,VALID,104,VALID,0,VALID,24.0448,VALID,305,VALID,0,
2012-04-17, 00:35:04,VALID,1008.11,VALID,0,VALID,104,VALID,0,VALID,24.0253,VALID,305,VALID,0,
2012-04-17, 00:36:04,VALID,1008.1,VALID,0,VALID,104,VALID,0,VALID,24.0448,VALID,305,VALID,0,
2012-04-17, 00:37:04,VALID,1008.13,VALID,0,VALID,104,VALID,0,VALID,24.0661,VALID,305,VALID,0,
2012-04-17, 00:38:04,VALID,1008.12,VALID,0,VALID,104,VALID,0,VALID,24.0643,VALID,305,VALID,0,
2012-04-17, 00:39:04,VALID,1008.12,VALID,0,VALID,104,VALID,0,VALID,24.0837,VALID,305,VALID,0,
2012-04-17, 00:40:04,VALID,1008.15,VALID,0,VALID,104,VALID,0,VALID,24.1032,VALID,305,VALID,0,
2012-04-17, 00:41:04,VALID,1008.18,VALID,0,VALID,104,VALID,0,VALID,24.1227,VALID,305,VALID,0,
2012-04-17, 00:42:04,VALID,1008.19,VALID,0,VALID,104,VALID,0,VALID,24.1635,VALID,305,VALID,0,
2012-04-17, 00:43:04,VALID,1008.2,VALID,0,VALID,104,VALID,0,VALID,24.1617,VALID,305,VALID,0,
2012-04-17, 00:44:04,VALID,1008.22,VALID,0,VALID,104,VALID,0,VALID,24.1812,VALID,305,VALID,0,
2012-04-17, 00:45:04,VALID,1008.18,VALID,0,VALID,104,VALID,0,VALID,24.1812,VALID,305,VALID,0,
2012-04-17, 00:46:04,VALID,1008.16,VALID,0,VALID,104,VALID,0,VALID,24.2202,VALID,305,VALID,0,
2012-04-17, 00:47:04,VALID,1008.18,VALID,0,VALID,104,VALID,0,VALID,24.2202,VALID,305,VALID,0,
2012-04-17, 00:48:04,VALID,1008.15,VALID,0,VALID,104,VALID,0,VALID,24.2007,VALID,305,VALID,0,
2012-04-17, 00:49:04,VALID,1008.16,VALID,0,VALID,104,VALID,0,VALID,24.1812,VALID,305,VALID,0,
2012-04-17, 00:50:04,VALID,1008.14,VALID,0,VALID,104,VALID,0,VALID,24.2025,VALID,305,VALID,0,
2012-04-17, 00:51:04,VALID,1008.11,VALID,0,VALID,104,VALID,0,VALID,24.1812,VALID,305,VALID,0,
2012-04-17, 00:52:04,VALID,1008.13,VALID,0,VALID,104,VALID,0,VALID,24.1617,VALID,305,VALID,0,
2012-04-17, 00:53:04,VALID,1008.12,VALID,0,VALID,104,VALID,0,VALID,24.1422,VALID,305,VALID,0,
2012-04-17, 00:54:04,VALID,1008.12,VALID,0,VALID,104,VALID,0,VALID,24.1245,VALID,305,VALID,0,
2012-04-17, 00:55:04,VALID,1008.12,VALID,0,VALID,104,VALID,0,VALID,24.0837,VALID,305,VALID,0,
2012-04-17, 00:56:04,VALID,1008.1,VALID,0,VALID,104,VALID,0,VALID,24.0643,VALID,305,VALID,0,
2012-04-17, 00:57:04,VALID,1008.11,VALID,0,VALID,104,VALID,0,VALID,24.0448,VALID,305,VALID,0,
2012-04-17, 00:58:04,VALID,1008.1,VALID,0,VALID,104,VALID,0,VALID,24.0448,VALID,305,VALID,0,
2012-04-17, 00:59:04,VALID,1008.09,VALID,0,VALID,104,VALID,0,VALID,24.0253,VALID,305,VALID,0,
2012-04-17, 01:00:04,VALID,1008.05,VALID,0,VALID,104,VALID,0,VALID,24.004,VALID,305,VALID,0,
2012-04-17, 01:01:04,VALID,1008.04,VALID,0,VALID,104,VALID,0.112112,VALID,24.0448,VALID,305,VALID,0,
2012-04-17, 01:02:04,VALID,1008.01,VALID,0,VALID,104,VALID,0,VALID,24.0448,VALID,305,VALID,0,
2012-04-17, 01:03:04,VALID,1008.02,VALID,0,VALID,104,VALID,0,VALID,24.0643,VALID,305,VALID,0,
2012-04-17, 01:04:04,VALID,1007.97,VALID,0,VALID,104,VALID,0,VALID,24.0643,VALID,305,VALID,0,
2012-04-17, 01:05:04,VALID,1007.96,VALID,0,VALID,104,VALID,0,VALID,24.0235,VALID,305,VALID,0,
2012-04-17, 01:06:04,VALID,1007.94,VALID,0,VALID,104,VALID,0,VALID,24.0643,VALID,305,VALID,0,
2012-04-17, 01:07:04,VALID,1007.94,VALID,0,VALID,104,VALID,0,VALID,24.0448,VALID,305,VALID,0,
2012-04-17, 01:08:04,VALID,1007.92,VALID,0,VALID,104,VALID,0,VALID,24.0448,VALID,305,VALID,0,
2012-04-17, 01:09:04,VALID,1007.96,VALID,0,VALID,104,VALID,0,VALID,24.0448,VALID,305,VALID,0,
2012-04-17, 01:10:04,VALID,1007.95,VALID,0,VALID,104,VALID,0,VALID,24.0058,VALID,305,VALID,0,
2012-04-17, 01:11:04,VALID,1007.95,VALID,0,VALID,104,VALID,0,VALID,24.0253,VALID,305,VALID,0,
2012-04-17, 01:12:04,VALID,1007.99,VALID,0,VALID,104,VALID,0,VALID,24.0253,VALID,305,VALID,0,
2012-04-17, 01:13:04,VALID,1007.98,VALID,0,VALID,104,VALID,0,VALID,24.0058,VALID,305,VALID,0,
2012-04-17, 01:14:04,VALID,1007.99,VALID,0,VALID,104,VALID,0,VALID,24.0058,VALID,305,VALID,0,
2012-04-17, 01:15:04,VALID,1008,VALID,0,VALID,104,VALID,0,VALID,24.0058,VALID,305,VALID,0,
2012-04-17, 01:16:04,VALID,1008,VALID,0,VALID,104,VALID,0,VALID,24.0058,VALID,305,VALID,0,
2012-04-17, 01:17:04,VALID,1008.02,VALID,0,VALID,104,VALID,0,VALID,24.0058,VALID,305,VALID,0,
2012-04-17, 01:18:04,VALID,1008.03,VALID,0,VALID,104,VALID,0,VALID,24.0058,VALID,305,VALID,0,
2012-04-17, 01:19:04,VALID,1008.01,VALID,0,VALID,104,VALID,0,VALID,23.9845,VALID,305,VALID,0,
2012-04-17, 01:20:04,VALID,1008.02,VALID,0,VALID,104,VALID,0,VALID,24.0058,VALID,305,VALID,0,
2012-04-17, 01:21:04,VALID,1008.01,VALID,0,VALID,104,VALID,0,VALID,23.9845,VALID,305,VALID,0,
2012-04-17, 01:22:04,VALID,1007.99,VALID,0,VALID,104,VALID,0,VALID,24.0058,VALID,305,VALID,0,
2012-04-17, 01:23:04,VALID,1008,VALID,0,VALID,104,VALID,0,VALID,24.0058,VALID,305,VALID,0,
2012-04-17, 01:24:04,VALID,1008,VALID,0,VALID,104,VALID,0,VALID,23.9845,VALID,305,VALID,0,
2012-04-17, 01:25:04,VALID,1007.95,VALID,0,VALID,104,VALID,0,VALID,24.0058,VALID,305,VALID,0,
2012-04-17, 01:26:04,VALID,1007.97,VALID,0,VALID,104,VALID,0,VALID,24.0058,VALID,305,VALID,0.336328,
2012-04-17, 01:27:04,VALID,1007.98,VALID,0,VALID,104,VALID,0,VALID,24.0058,VALID,305,VALID,0.169922,
2012-04-17, 01:28:04,VALID,1007.99,VALID,0,VALID,104,VALID,0,VALID,23.965,VALID,305,VALID,0.241406,
2012-04-17, 01:29:04,VALID,1007.98,VALID,0,VALID,104,VALID,0,VALID,23.9668,VALID,305,VALID,0.0242187,
2012-04-17, 01:30:04,VALID,1008.01,VALID,0,VALID,104,VALID,0,VALID,23.9668,VALID,305,VALID,0,
2012-04-17, 01:31:04,VALID,1007.97,VALID,0,VALID,104,VALID,0,VALID,23.9473,VALID,305,VALID,0,
2012-04-17, 01:32:04,VALID,1007.95,VALID,0,VALID,104,VALID,0,VALID,23.9278,VALID,305,VALID,0,
2012-04-17, 01:33:04,VALID,1007.93,VALID,0,VALID,104,VALID,0,VALID,23.8871,VALID,305,VALID,0,
2012-04-17, 01:34:04,VALID,1007.89,VALID,0,VALID,104,VALID,0,VALID,23.8889,VALID,305,VALID,0,
2012-04-17, 01:35:04,VALID,1007.88,VALID,0,VALID,104,VALID,0,VALID,23.8889,VALID,305,VALID,0,
2012-04-17, 01:36:04,VALID,1007.84,VALID,0,VALID,104,VALID,0,VALID,23.8499,VALID,305,VALID,0,
2012-04-17, 01:37:04,VALID,1007.84,VALID,0,VALID,104,VALID,0,VALID,23.8694,VALID,305,VALID,0,
2012-04-17, 01:38:04,VALID,1007.8,VALID,0,VALID,104,VALID,0,VALID,23.8694,VALID,305,VALID,0,
2012-04-17, 01:39:04,VALID,1007.79,VALID,0,VALID,104,VALID,0,VALID,23.8499,VALID,305,VALID,0,
2012-04-17, 01:40:04,VALID,1007.8,VALID,0,VALID,104,VALID,0,VALID,23.8304,VALID,305,VALID,0,
2012-04-17, 01:41:04,VALID,1007.8,VALID,0,VALID,104,VALID,0,VALID,23.8091,VALID,305,VALID,0,
2012-04-17, 01:42:04,VALID,1007.78,VALID,0,VALID,104,VALID,0,VALID,23.8304,VALID,305,VALID,0,
2012-04-17, 01:43:04,VALID,1007.79,VALID,0,VALID,104,VALID,0,VALID,23.8304,VALID,305,VALID,0.0210938,
2012-04-17, 01:44:04,VALID,1007.77,VALID,0,VALID,104,VALID,0,VALID,23.8499,VALID,305,VALID,0.0332031,
2012-04-17, 01:45:04,VALID,1007.76,VALID,0,VALID,104,VALID,0,VALID,23.8499,VALID,305,VALID,0,
2012-04-17, 01:46:04,VALID,1007.75,VALID,0,VALID,104,VALID,0,VALID,23.8694,VALID,305,VALID,0,
2012-04-17, 01:47:04,VALID,1007.74,VALID,0,VALID,104,VALID,0,VALID,23.8889,VALID,305,VALID,0,
2012-04-17, 01:48:04,VALID,1007.71,VALID,0,VALID,104,VALID,0,VALID,23.9084,VALID,305,VALID,0,
2012-04-17, 01:49:04,VALID,1007.72,VALID,0,VALID,104,VALID,0,VALID,23.9084,VALID,305,VALID,0,
2012-04-17, 01:50:04,VALID,1007.68,VALID,0,VALID,104,VALID,0,VALID,23.9278,VALID,305,VALID,0,
2012-04-17, 01:51:04,VALID,1007.67,VALID,0,VALID,104,VALID,0,VALID,23.9473,VALID,305,VALID,0,
2012-04-17, 01:52:04,VALID,1007.68,VALID,0,VALID,104,VALID,0,VALID,23.9668,VALID,305,VALID,0,
2012-04-17, 01:53:04,VALID,1007.67,VALID,0,VALID,104,VALID,0,VALID,23.9473,VALID,305,VALID,0,
2012-04-17, 01:54:04,VALID,1007.72,VALID,0,VALID,104,VALID,0,VALID,23.9278,VALID,305,VALID,0,
2012-04-17, 01:55:04,VALID,1007.71,VALID,0,VALID,104,VALID,0,VALID,23.9278,VALID,305,VALID,0,
2012-04-17, 01:56:04,VALID,1007.73,VALID,0,VALID,104,VALID,0,VALID,23.9278,VALID,305,VALID,0,
2012-04-17, 01:57:04,VALID,1007.71,VALID,0,VALID,104,VALID,0,VALID,23.9084,VALID,305,VALID,0,
2012-04-17, 01:58:04,VALID,1007.7,VALID,0,VALID,104,VALID,0,VALID,23.9084,VALID,305,VALID,0,
2012-04-17, 01:59:04,VALID,1007.71,VALID,0,VALID,104,VALID,0,VALID,23.8871,VALID,305,VALID,0,
2012-04-17, 02:00:04,VALID,1007.68,VALID,0,VALID,104,VALID,0,VALID,23.8694,VALID,305,VALID,0,
2012-04-17, 02:01:04,VALID,1007.7,VALID,0,VALID,104,VALID,0,VALID,23.8304,VALID,305,VALID,0,
2012-04-17, 02:02:04,VALID,1007.72,VALID,0,VALID,104,VALID,0,VALID,23.8109,VALID,305,VALID,0.00664063,
2012-04-17, 02:03:04,VALID,1007.72,VALID,0,VALID,104,VALID,0,VALID,23.8109,VALID,305,VALID,0.310547,
2012-04-17, 02:04:04,VALID,1007.7,VALID,0,VALID,104,VALID,0,VALID,23.8304,VALID,305,VALID,0.308203,
2012-04-17, 02:05:04,VALID,1007.72,VALID,0,VALID,104,VALID,0,VALID,23.8304,VALID,305,VALID,0.289063,
2012-04-17, 02:06:04,VALID,1007.71,VALID,0,VALID,104,VALID,0,VALID,23.8304,VALID,305,VALID,0.178125,
2012-04-17, 02:07:04,VALID,1007.66,VALID,0,VALID,104,VALID,0.112112,VALID,23.8286,VALID,305,VALID,0.0207031,
2012-04-17, 02:08:04,VALID,1007.65,VALID,0,VALID,104,VALID,0,VALID,23.8304,VALID,305,VALID,0,
2012-04-17, 02:09:04,VALID,1007.65,VALID,0,VALID,104,VALID,0,VALID,23.8109,VALID,305,VALID,0,
2012-04-17, 02:10:04,VALID,1007.65,VALID,0,VALID,104,VALID,0,VALID,23.8304,VALID,305,VALID,0,
2012-04-17, 02:11:04,VALID,1007.62,VALID,0,VALID,104,VALID,0,VALID,23.8304,VALID,305,VALID,0,
2012-04-17, 02:12:04,VALID,1007.62,VALID,0,VALID,104,VALID,0,VALID,23.8109,VALID,305,VALID,0,
2012-04-17, 02:13:04,VALID,1007.59,VALID,0,VALID,104,VALID,0,VALID,23.8109,VALID,305,VALID,0,
2012-04-17, 02:14:04,VALID,1007.59,VALID,0,VALID,104,VALID,0,VALID,23.7914,VALID,305,VALID,0,
2012-04-17, 02:15:04,VALID,1007.55,VALID,0,VALID,104,VALID,0,VALID,23.7701,VALID,305,VALID,0,
2012-04-17, 02:16:04,VALID,1007.57,VALID,0,VALID,104,VALID,0,VALID,23.772,VALID,305,VALID,0,
2012-04-17, 02:17:04,VALID,1007.55,VALID,0,VALID,104,VALID,0,VALID,23.772,VALID,305,VALID,0,
2012-04-17, 02:18:05,VALID,1007.54,VALID,0,VALID,104,VALID,0,VALID,23.7312,VALID,305,VALID,0,
2012-04-17, 02:19:05,VALID,1007.52,VALID,0,VALID,104,VALID,0,VALID,23.733,VALID,305,VALID,0,
2012-04-17, 02:20:05,VALID,1007.49,VALID,0,VALID,104,VALID,0,VALID,23.733,VALID,305,VALID,0,
2012-04-17, 02:21:04,VALID,1007.48,VALID,0,VALID,104,VALID,0,VALID,23.7525,VALID,305,VALID,0,
2012-04-17, 02:22:05,VALID,1007.45,VALID,0,VALID,104,VALID,0.112112,VALID,23.7525,VALID,305,VALID,0,
2012-04-17, 02:23:05,VALID,1007.47,VALID,0,VALID,104,VALID,0,VALID,23.772,VALID,305,VALID,0,
2012-04-17, 02:24:05,VALID,1007.44,VALID,0,VALID,104,VALID,0,VALID,23.7914,VALID,305,VALID,0,
2012-04-17, 02:25:05,VALID,1007.44,VALID,0,VALID,104,VALID,0,VALID,23.7701,VALID,305,VALID,0,
2012-04-17, 02:26:05,VALID,1007.4,VALID,0,VALID,104,VALID,0,VALID,23.7312,VALID,305,VALID,0,
2012-04-17, 02:27:05,VALID,1007.39,VALID,0,VALID,104,VALID,0,VALID,23.733,VALID,305,VALID,0,
2012-04-17, 02:28:05,VALID,1007.38,VALID,0,VALID,104,VALID,0,VALID,23.7135,VALID,305,VALID,0,
2012-04-17, 02:29:05,VALID,1007.36,VALID,0,VALID,104,VALID,0,VALID,23.6727,VALID,305,VALID,0,
2012-04-17, 02:30:05,VALID,1007.34,VALID,0,VALID,104,VALID,0,VALID,23.694,VALID,305,VALID,0,
2012-04-17, 02:31:05,VALID,1007.32,VALID,0,VALID,104,VALID,0,VALID,23.694,VALID,305,VALID,0,
2012-04-17, 02:32:05,VALID,1007.32,VALID,0,VALID,104,VALID,0,VALID,23.694,VALID,305,VALID,0,
2012-04-17, 02:33:05,VALID,1007.28,VALID,0,VALID,104,VALID,0,VALID,23.7135,VALID,305,VALID,0,
2012-04-17, 02:34:05,VALID,1007.29,VALID,0,VALID,104,VALID,0,VALID,23.7525,VALID,305,VALID,0,
2012-04-17, 02:35:05,VALID,1007.28,VALID,0,VALID,104,VALID,0,VALID,23.7914,VALID,305,VALID,0,
2012-04-17, 02:36:05,VALID,1007.28,VALID,0,VALID,104,VALID,0,VALID,23.8304,VALID,305,VALID,0,
2012-04-17, 02:37:05,VALID,1007.26,VALID,0,VALID,104,VALID,0,VALID,23.8499,VALID,305,VALID,0,
2012-04-17, 02:38:05,VALID,1007.28,VALID,0,VALID,104,VALID,0,VALID,23.8091,VALID,305,VALID,0,
2012-04-17, 02:39:05,VALID,1007.26,VALID,0,VALID,104,VALID,0,VALID,23.8499,VALID,305,VALID,0,
2012-04-17, 02:40:05,VALID,1007.27,VALID,0,VALID,104,VALID,0,VALID,23.8694,VALID,305,VALID,0,
2012-04-17, 02:41:05,VALID,1007.24,VALID,0,VALID,104,VALID,0,VALID,23.8694,VALID,305,VALID,0,
2012-04-17, 02:42:05,VALID,1007.26,VALID,0,VALID,104,VALID,0,VALID,23.8499,VALID,305,VALID,0,
2012-04-17, 02:43:05,VALID,1007.25,VALID,0,VALID,104,VALID,0,VALID,23.8304,VALID,305,VALID,0,
2012-04-17, 02:44:05,VALID,1007.24,VALID,0,VALID,104,VALID,0,VALID,23.8304,VALID,305,VALID,0.0820313,
2012-04-17, 02:45:05,VALID,1007.22,VALID,0,VALID,104,VALID,0,VALID,23.8304,VALID,305,VALID,0.367969,
2012-04-17, 02:46:05,VALID,1007.19,VALID,0,VALID,104,VALID,0,VALID,23.8499,VALID,305,VALID,0.399609,
2012-04-17, 02:47:05,VALID,1007.19,VALID,0,VALID,104,VALID,0,VALID,23.8694,VALID,305,VALID,0.287891,
2012-04-17, 02:48:05,VALID,1007.13,VALID,0,VALID,104,VALID,0,VALID,23.8286,VALID,305,VALID,0.412109,
2012-04-17, 02:49:05,VALID,1007.1,VALID,0,VALID,104,VALID,0,VALID,23.8694,VALID,305,VALID,0.323438,
2012-04-17, 02:50:05,VALID,1007.09,VALID,0,VALID,104,VALID,0,VALID,23.8694,VALID,305,VALID,0.467578,
2012-04-17, 02:51:05,VALID,1007.02,VALID,0,VALID,104,VALID,0,VALID,23.8889,VALID,305,VALID,0.301953,
2012-04-17, 02:52:05,VALID,1007.01,VALID,0,VALID,104,VALID,0,VALID,23.9084,VALID,305,VALID,0.185156,
2012-04-17, 02:53:05,VALID,1006.98,VALID,0,VALID,104,VALID,0,VALID,23.9084,VALID,305,VALID,0,
2012-04-17, 02:54:05,VALID,1006.97,VALID,0,VALID,104,VALID,0,VALID,23.9084,VALID,305,VALID,0,
2012-04-17, 02:55:05,VALID,1006.95,VALID,0,VALID,104,VALID,0,VALID,23.8889,VALID,305,VALID,0,
2012-04-17, 02:56:05,VALID,1006.95,VALID,0,VALID,104,VALID,0,VALID,23.9102,VALID,305,VALID,0,
2012-04-17, 02:57:05,VALID,1006.96,VALID,0,VALID,104,VALID,0,VALID,23.9084,VALID,305,VALID,0,
2012-04-17, 02:58:05,VALID,1006.97,VALID,0,VALID,104,VALID,0,VALID,23.9084,VALID,305,VALID,0.248828,
2012-04-17, 02:59:05,VALID,1007.06,VALID,0,VALID,104,VALID,0,VALID,23.9668,VALID,233,VALID,1.04492,
2012-04-17, 03:00:05,VALID,1007.05,VALID,0,VALID,104,VALID,0,VALID,23.9863,VALID,221,VALID,0.364453,
2012-04-17, 03:01:05,VALID,1007.03,VALID,0,VALID,104,VALID,0,VALID,24.0448,VALID,248,VALID,0.264062,
2012-04-17, 03:02:05,VALID,1007.06,VALID,0,VALID,104,VALID,0,VALID,24.0819,VALID,221,VALID,0.403125,
2012-04-17, 03:03:05,VALID,1007.02,VALID,0,VALID,104,VALID,0,VALID,24.1599,VALID,217,VALID,0.652344,
2012-04-17, 03:04:05,VALID,1006.98,VALID,0,VALID,104,VALID,0,VALID,24.2396,VALID,220,VALID,0.419141,
2012-04-17, 03:05:05,VALID,1006.92,VALID,0,VALID,104,VALID,0,VALID,24.2573,VALID,175,VALID,0.716797,
2012-04-17, 03:06:05,VALID,1006.93,VALID,0,VALID,104,VALID,0,VALID,24.3158,VALID,49,VALID,0.459375,
2012-04-17, 03:07:05,VALID,1006.97,VALID,0,VALID,104,VALID,0,VALID,24.3371,VALID,49,VALID,0.458984,
2012-04-17, 03:08:05,VALID,1006.96,VALID,0,VALID,104,VALID,0,VALID,24.3566,VALID,49,VALID,0,
2012-04-17, 03:09:05,VALID,1006.95,VALID,0,VALID,104,VALID,0,VALID,24.3761,VALID,49,VALID,0.151172,
2012-04-17, 03:10:05,VALID,1006.91,VALID,0,VALID,104,VALID,0,VALID,24.3566,VALID,49,VALID,0.804688,
2012-04-17, 03:11:05,VALID,1006.9,VALID,0,VALID,104,VALID,0,VALID,24.3761,VALID,44,VALID,0.768359,
2012-04-17, 03:12:05,VALID,1006.93,VALID,0,VALID,104,VALID,0,VALID,24.3566,VALID,44,VALID,0.214062,
2012-04-17, 03:13:05,VALID,1006.9,VALID,0,VALID,104,VALID,0,VALID,24.3371,VALID,44,VALID,0.450391,
2012-04-17, 03:14:05,VALID,1006.89,VALID,0,VALID,104,VALID,0,VALID,24.3974,VALID,43,VALID,0.169922,
2012-04-17, 03:15:05,VALID,1006.89,VALID,0,VALID,104,VALID,0,VALID,24.3956,VALID,43,VALID,0,
2012-04-17, 03:16:05,VALID,1006.87,VALID,0,VALID,104,VALID,0,VALID,24.3956,VALID,43,VALID,0.0046875,
2012-04-17, 03:17:05,VALID,1006.86,VALID,0,VALID,104,VALID,0,VALID,24.3566,VALID,43,VALID,0.447656,
2012-04-17, 03:18:05,VALID,1006.85,VALID,0,VALID,104,VALID,0,VALID,24.2963,VALID,43,VALID,0.360547,
2012-04-17, 03:19:05,VALID,1006.88,VALID,0,VALID,104,VALID,0,VALID,24.2805,VALID,43,VALID,0.0910156,
2012-04-17, 03:20:05,VALID,1006.94,VALID,0,VALID,104,VALID,0,VALID,24.2202,VALID,43,VALID,0,
2012-04-17, 03:21:05,VALID,1006.97,VALID,0,VALID,104,VALID,0,VALID,24.2202,VALID,43,VALID,0,
2012-04-17, 03:22:05,VALID,1006.98,VALID,0,VALID,104,VALID,0,VALID,24.1812,VALID,43,VALID,0.217578,
2012-04-17, 03:23:05,VALID,1006.97,VALID,0,VALID,104,VALID,0,VALID,24.2202,VALID,43,VALID,0.454688,
2012-04-17, 03:24:05,VALID,1006.97,VALID,0,VALID,104,VALID,0,VALID,24.2007,VALID,43,VALID,0.503516,
2012-04-17, 03:25:05,VALID,1007,VALID,0,VALID,104,VALID,0,VALID,24.1422,VALID,43,VALID,0.464063,
2012-04-17, 03:26:05,VALID,1006.99,VALID,0,VALID,104,VALID,0,VALID,24.1032,VALID,43,VALID,0,
2012-04-17, 03:27:05,VALID,1007.01,VALID,0,VALID,104,VALID,0,VALID,24.0643,VALID,43,VALID,0,
2012-04-17, 03:28:05,VALID,1006.99,VALID,0,VALID,104,VALID,0,VALID,24.0643,VALID,43,VALID,0,
2012-04-17, 03:29:05,VALID,1006.98,VALID,0,VALID,104,VALID,0,VALID,24.0661,VALID,43,VALID,0.0253906,
2012-04-17, 03:30:05,VALID,1007,VALID,0,VALID,104,VALID,0,VALID,24.0448,VALID,43,VALID,0.247266,
2012-04-17, 03:31:05,VALID,1007.02,VALID,0,VALID,104,VALID,0,VALID,24.0058,VALID,43,VALID,0,
2012-04-17, 03:32:05,VALID,1007.04,VALID,0,VALID,104,VALID,0,VALID,23.9881,VALID,43,VALID,0,
2012-04-17, 03:33:05,VALID,1007.06,VALID,0,VALID,104,VALID,0,VALID,24.0076,VALID,43,VALID,0,
2012-04-17, 03:34:05,VALID,1007.07,VALID,0,VALID,104,VALID,0,VALID,24.0271,VALID,43,VALID,0,
2012-04-17, 03:35:05,VALID,1007.12,VALID,0,VALID,104,VALID,0,VALID,24.0271,VALID,43,VALID,0,
2012-04-17, 03:36:05,VALID,1007.12,VALID,0,VALID,104,VALID,0,VALID,24.0253,VALID,43,VALID,0,
2012-04-17, 03:37:05,VALID,1007.15,VALID,0,VALID,104,VALID,0,VALID,24.0253,VALID,43,VALID,0,
2012-04-17, 03:38:05,VALID,1007.16,VALID,0,VALID,104,VALID,0,VALID,24.0058,VALID,43,VALID,0,
2012-04-17, 03:39:05,VALID,1007.14,VALID,0,VALID,104,VALID,0,VALID,24.0058,VALID,43,VALID,0.0125,
2012-04-17, 03:40:05,VALID,1007.13,VALID,0,VALID,104,VALID,0,VALID,23.9668,VALID,43,VALID,0.664844,
2012-04-17, 03:41:05,VALID,1007.13,VALID,0,VALID,104,VALID,0,VALID,23.9473,VALID,43,VALID,0.436328,
2012-04-17, 03:42:05,VALID,1007.1,VALID,0,VALID,104,VALID,0,VALID,23.9278,VALID,43,VALID,0.191797,
2012-04-17, 03:43:05,VALID,1007.1,VALID,0,VALID,104,VALID,0,VALID,23.9278,VALID,43,VALID,0.246094,
2012-04-17, 03:44:05,VALID,1007.08,VALID,0,VALID,104,VALID,0,VALID,23.9278,VALID,43,VALID,0.425391,
2012-04-17, 03:45:05,VALID,1007.1,VALID,0,VALID,104,VALID,0,VALID,23.9297,VALID,43,VALID,0.412109,
2012-04-17, 03:46:05,VALID,1007.1,VALID,0,VALID,104,VALID,0,VALID,23.9278,VALID,43,VALID,0.157031,
2012-04-17, 03:47:05,VALID,1007.1,VALID,0,VALID,104,VALID,0,VALID,23.9084,VALID,43,VALID,0.0511719,
2012-04-17, 03:48:05,VALID,1007.1,VALID,0,VALID,104,VALID,0,VALID,23.9102,VALID,43,VALID,0.186328,
2012-04-17, 03:49:05,VALID,1007.07,VALID,0,VALID,104,VALID,0,VALID,23.9297,VALID,43,VALID,0.628906,
2012-04-17, 03:50:05,VALID,1007.06,VALID,0,VALID,104,VALID,0,VALID,23.9297,VALID,43,VALID,0.453906,
2012-04-17, 03:51:05,VALID,1007.1,VALID,0,VALID,104,VALID,0,VALID,23.9297,VALID,43,VALID,0.407422,
2012-04-17, 03:52:05,VALID,1007.06,VALID,0,VALID,104,VALID,0,VALID,23.9084,VALID,43,VALID,0.362109,
2012-04-17, 03:53:05,VALID,1007.07,VALID,0,VALID,104,VALID,0,VALID,23.9084,VALID,43,VALID,0.318359,
2012-04-17, 03:54:05,VALID,1007.07,VALID,0,VALID,104,VALID,0,VALID,23.9491,VALID,43,VALID,0.19375,
2012-04-17, 03:55:05,VALID,1007.05,VALID,0,VALID,104,VALID,0,VALID,23.9278,VALID,43,VALID,0.167578,
2012-04-17, 03:56:05,VALID,1007.07,VALID,0,VALID,104,VALID,0,VALID,23.9473,VALID,43,VALID,0,
2012-04-17, 03:57:05,VALID,1007.09,VALID,0,VALID,104,VALID,0,VALID,23.9686,VALID,43,VALID,0,
2012-04-17, 03:58:05,VALID,1007.09,VALID,0,VALID,104,VALID,0,VALID,23.9473,VALID,43,VALID,0,
2012-04-17, 03:59:05,VALID,1007.11,VALID,0,VALID,104,VALID,0,VALID,23.9881,VALID,43,VALID,0,
2012-04-17, 04:00:05,VALID,1007.1,VALID,0,VALID,104,VALID,0,VALID,23.9863,VALID,43,VALID,0,
2012-04-17, 04:01:05,VALID,1007.1,VALID,0,VALID,104,VALID,0,VALID,24.0076,VALID,43,VALID,0,
2012-04-17, 04:02:05,VALID,1007.08,VALID,0,VALID,104,VALID,0,VALID,23.9668,VALID,43,VALID,0.358984,
2012-04-17, 04:03:05,VALID,1007.1,VALID,0,VALID,104,VALID,0,VALID,23.9881,VALID,43,VALID,0.426172,
2012-04-17, 04:04:05,VALID,1007.09,VALID,0,VALID,104,VALID,0,VALID,23.9473,VALID,43,VALID,0.480469,
2012-04-17, 04:05:05,VALID,1007.04,VALID,0,VALID,104,VALID,0,VALID,23.9473,VALID,43,VALID,0.56875,